Weather in Tartus

Syria     34°52′37″N   35°53′46″E
temp.,
°C
wind,
m/s
gust,
m/s
humid.,
%
clouds,
%
prec.,
mm/h
press.,
hPa
HPBL,
m
17 september, fri
fri1700:00+21wnw11753 0.0 101114
03:00+21w22756 0.1 101129
06:00+20ese00771 0.1 101011
09:00+24sw22633 0.1 10111037
12:00+27w53480 0.0 10101450
15:00+26w54470 0.0 10101170
18:00+24wnw33550 0.0 1010657
21:00+21nne11700 0.0 101111
18 september, sat
sat1800:00+21ene11750 0.0 101211
03:00+20e22800 0.0 101119
06:00+20e11820 0.0 101213
09:00+24sw11580 0.0 1012554
12:00+28w53450 0.0 10121186
15:00+28w54430 0.0 10111004
18:00+25wnw33510 0.0 1012546
21:00+22ese11650 0.0 101311
19 september, sun
sun1900:00+22e11680 0.0 101311
03:00+20e21760 0.0 101313
06:00+20e11780 0.0 101312
09:00+25nw22510 0.0 1014525
12:00+29wnw43380 0.0 1013947
15:00+28wnw54410 0.0 1013803
18:00+25w22520 0.0 1013475
21:00+23ene11650 0.0 101411
20 september, mon
mon2000:00+22ene11600 0.0 101411
03:00+22ene11550 0.0 101311
06:00+21ene11560 0.0 101311
09:00+27w11430 0.0 1014358
12:00+30w43370 0.0 1014765
15:00+29w44410 0.0 1013713
18:00+27w21530 0.0 1013388
21:00+24ne11650 0.0 101411
21 september, tue
tue2100:00+23ene11530 0.0 101411
03:00+23nne22470 0.0 101311
06:00+23ene11500 0.0 101311
09:00+28w11360 0.0 1014295
12:00+32wnw43320 0.0 1013779
15:00+31wnw44360 0.0 1012633
18:00+27w22490 0.0 1012257
21:00+24ese11630 0.0 101211